Weather History for Tampa Knight Airport, FL

Change the Weather History Date:

Thursday, July 18, 2013

  Actual Average (KTPA) Record (KTPA)
Temperature  
Mean Temperature 78 °F 83 °F  
Max Temperature 86 °F 90 °F 95 °F (1946)
Min Temperature 71 °F 76 °F 68 °F (1968)
Degree Days  
Heating Degree Days 0 0  
Month to date heating degree days 0  
Since 1 June heating degree days 0  
Since 1 July heating degree days 0  
Cooling Degree Days 14 18  
Month to date cooling degree days 324  
Year to date cooling degree days 1717  
Since 1 June cooling degree days 840  
Growing Degree Days 28 (Base 50)    
Moisture  
Dew Point 70 °F    
Average Humidity 81    
Maximum Humidity 94    
Minimum Humidity 55    
Precipitation  
Precipitation 0.08 in 0.22 in 2.60 in (1896)
Month to date precipitation 4.19  
Year to date precipitation 23.07  
Sea Level Pressure  
Sea Level Pressure 30.10 in    
Wind  
Wind Speed 6 mph (ESE)    
Max Wind Speed 20 mph    
Max Gust Speed 28 mph    
Visibility 10 miles    
Events Rain    
T = Trace of Precipitation, MM = Missing Value Source: NWS Daily Summary

Daily Weather History Graph

Daily Weather History Graph

Search for Another Location

Airport:

Trip Planner

Search our weather history database for the weather conditions in past years. The results will help you decide how hot, cold, wet, or windy it might be!

Date:

Astronomy

Jul. 18, 2013 Rise Set
Actual Time 6:45 AM EDT 8:26 PM EDT
Civil Twilight 6:19 AM EDT 8:52 PM EDT
Nautical Twilight 5:47 AM EDT 9:23 PM EDT
Astronomical Twilight 5:14 AM EDT 9:56 PM EDT
Moon 4:24 PM EDT (7/18) 2:29 AM EDT (7/18)
Length of Visible Light 14h 33m
Length of Day
13h 41m
Waxing Gibbous, 77% of the Moon is Illuminated
Jul 18
Waxing Gibbous
Jul 22
Full
Jul 29
Last Quarter
Aug 6
New
Aug 14
First Quarter

Hourly Weather History & Observations

Time (EDT) Temp. Heat Index Dew Point Humidity Pressure Visibility Wind Dir Wind Speed Gust Speed Precip Events Conditions
12:15 AM 73.4 °F - 69.8 °F 88% 30.13 in 10.0 mi East 4.6 mph - N/A   Clear
12:35 AM 73.4 °F - 69.8 °F 88% 30.11 in 10.0 mi East 3.5 mph - N/A   Clear
12:55 AM 73.4 °F - 68.0 °F 83% 30.11 in 10.0 mi East 4.6 mph - N/A   Clear
1:15 AM 73.4 °F - 68.0 °F 83% 30.11 in 10.0 mi East 4.6 mph - N/A   Clear
1:35 AM 73.4 °F - 69.8 °F 88% 30.11 in 10.0 mi ENE 5.8 mph - N/A   Clear
1:55 AM 71.6 °F - 69.8 °F 94% 30.11 in 10.0 mi East 3.5 mph - N/A   Clear
2:15 AM 73.4 °F - 69.8 °F 88% 30.11 in 10.0 mi ENE 3.5 mph - N/A   Clear
2:35 AM 73.4 °F - 69.8 °F 88% 30.11 in 10.0 mi ENE 4.6 mph - N/A   Clear
2:55 AM 73.4 °F - 69.8 °F 88% 30.11 in 10.0 mi ENE 6.9 mph - N/A   Clear
3:15 AM 73.4 °F - 69.8 °F 88% 30.11 in 10.0 mi ENE 5.8 mph - N/A   Clear
3:35 AM 73.4 °F - 69.8 °F 88% 30.10 in 3.0 mi ENE 6.9 mph - N/A   Heavy Drizzle
3:55 AM 71.6 °F - 69.8 °F 94% 30.09 in 10.0 mi ENE 5.8 mph - N/A   Clear
4:15 AM 73.4 °F - 69.8 °F 88% 30.09 in 10.0 mi ENE 8.1 mph - N/A   Clear
4:35 AM 73.4 °F - 69.8 °F 88% 30.09 in 10.0 mi ENE 8.1 mph - N/A   Clear
4:55 AM 73.4 °F - 69.8 °F 88% 30.09 in 10.0 mi ENE 5.8 mph - N/A   Clear
5:15 AM 73.4 °F - 69.8 °F 88% 30.09 in 10.0 mi ENE 4.6 mph - N/A   Clear
5:35 AM 71.6 °F - 69.8 °F 94% 30.09 in 10.0 mi ENE 6.9 mph - N/A   Clear
5:55 AM 71.6 °F - 69.8 °F 94% 30.09 in 10.0 mi ENE 5.8 mph - N/A   Clear
6:15 AM 73.4 °F - 69.8 °F 88% 30.10 in 10.0 mi ENE 6.9 mph - N/A   Clear
6:35 AM 73.4 °F - 69.8 °F 88% 30.10 in 10.0 mi ENE 6.9 mph - N/A   Clear
6:55 AM 73.4 °F - 69.8 °F 88% 30.10 in 10.0 mi East 8.1 mph - N/A   Clear
7:15 AM 73.4 °F - 69.8 °F 88% 30.11 in 10.0 mi ENE 8.1 mph - N/A   Clear
7:35 AM 73.4 °F - 69.8 °F 88% 30.11 in 10.0 mi ENE 5.8 mph - N/A   Clear
7:55 AM 73.4 °F - 71.6 °F 94% 30.11 in 10.0 mi East 6.9 mph - N/A   Clear
8:15 AM 73.4 °F - 71.6 °F 94% 30.11 in 10.0 mi ENE 3.5 mph - N/A   Clear
8:35 AM 75.2 °F - 71.6 °F 89% 30.12 in 10.0 mi East 4.6 mph - N/A   Clear
8:55 AM 77.0 °F - 71.6 °F 83% 30.13 in 10.0 mi East 6.9 mph - N/A   Clear
9:15 AM 77.0 °F - 71.6 °F 83% 30.13 in 10.0 mi East 5.8 mph - N/A   Clear
9:35 AM 78.8 °F - 71.6 °F 78% 30.13 in 10.0 mi East 5.8 mph - N/A   Clear
9:55 AM 80.6 °F 83.9 °F 69.8 °F 70% 30.13 in 10.0 mi East 9.2 mph - N/A   Scattered Clouds
10:15 AM 80.6 °F 83.9 °F 69.8 °F 70% 30.13 in 10.0 mi ESE 8.1 mph - N/A   Scattered Clouds
10:35 AM 80.6 °F 84.6 °F 71.6 °F 74% 30.13 in 10.0 mi East 9.2 mph - N/A   Scattered Clouds
10:55 AM 80.6 °F 83.9 °F 69.8 °F 70% 30.12 in 10.0 mi SE 11.5 mph - N/A   Scattered Clouds
11:15 AM 82.4 °F 87.2 °F 71.6 °F 70% 30.13 in 10.0 mi SSE 9.2 mph - N/A   Clear
11:35 AM 82.4 °F 86.3 °F 69.8 °F 66% 30.13 in 10.0 mi SE 8.1 mph - N/A   Scattered Clouds
11:55 AM 82.4 °F 86.3 °F 69.8 °F 66% 30.13 in 10.0 mi SE 6.9 mph - N/A   Clear
12:15 PM 84.2 °F 88.4 °F 69.8 °F 62% 30.12 in 10.0 mi SSE 9.2 mph - N/A   Scattered Clouds
12:35 PM 84.2 °F 89.6 °F 71.6 °F 66% 30.12 in 10.0 mi SSE 9.2 mph - N/A   Scattered Clouds
12:55 PM 84.2 °F 88.4 °F 69.8 °F 62% 30.12 in 10.0 mi SSE 8.1 mph - N/A   Scattered Clouds
1:15 PM 82.4 °F 86.3 °F 69.8 °F 66% 30.11 in 10.0 mi SE 8.1 mph - N/A   Clear
1:35 PM 82.4 °F 86.3 °F 69.8 °F 66% 30.11 in 10.0 mi SE 8.1 mph - N/A   Clear
1:55 PM 84.2 °F 88.4 °F 69.8 °F 62% 30.10 in 10.0 mi ESE 4.6 mph - N/A   Clear
2:15 PM 84.2 °F 88.4 °F 69.8 °F 62% 30.09 in 10.0 mi SE 5.8 mph - N/A   Scattered Clouds
2:35 PM 84.2 °F 88.4 °F 69.8 °F 62% 30.09 in 10.0 mi SSE 3.5 mph - N/A   Scattered Clouds
2:55 PM 86.0 °F 90.4 °F 69.8 °F 58% 30.09 in 10.0 mi SSE 4.6 mph - N/A   Scattered Clouds
3:15 PM 86.0 °F 90.4 °F 69.8 °F 58% 30.08 in 10.0 mi South 3.5 mph - N/A   Mostly Cloudy
3:35 PM 86.0 °F 89.4 °F 68.0 °F 55% 30.06 in 10.0 mi South 3.5 mph - N/A   Overcast
3:55 PM 86.0 °F 90.4 °F 69.8 °F 58% 30.05 in 10.0 mi South 4.6 mph - N/A   Mostly Cloudy
4:15 PM 86.0 °F 90.4 °F 69.8 °F 58% 30.06 in 10.0 mi South 4.6 mph - N/A   Mostly Cloudy
4:35 PM 78.8 °F - 69.8 °F 74% 30.07 in 10.0 mi South 19.6 mph 27.6 mph N/A   Mostly Cloudy
4:55 PM 77.0 °F - 71.6 °F 83% 30.08 in 10.0 mi South 18.4 mph 24.2 mph N/A   Overcast
5:15 PM 73.4 °F - 69.8 °F 88% 30.07 in 2.5 mi SSW 10.4 mph - 0.07 in Rain Rain
6:15 PM 77.0 °F - 71.6 °F 83% 30.07 in 10.0 mi SSE 11.5 mph - N/A Rain Rain
6:35 PM 77.0 °F - 71.6 °F 83% 30.07 in 10.0 mi SSE 12.7 mph - 0.01 in Rain Light Rain
6:55 PM 75.2 °F - 71.6 °F 89% 30.07 in 10.0 mi South 9.2 mph - 0.01 in   Overcast
7:15 PM 75.2 °F - 71.6 °F 89% 30.08 in 10.0 mi South 9.2 mph - N/A Rain Light Rain
7:35 PM 73.4 °F - 71.6 °F 94% 30.08 in 10.0 mi SSE 5.8 mph - N/A   Light Drizzle
7:55 PM 73.4 °F - 71.6 °F 94% 30.08 in 10.0 mi SE 4.6 mph - N/A   Light Drizzle
8:15 PM 73.4 °F - 71.6 °F 94% 30.08 in 10.0 mi ENE 5.8 mph - N/A Rain Light Rain
8:35 PM 73.4 °F - 71.6 °F 94% 30.09 in 10.0 mi East 4.6 mph - N/A   Scattered Clouds
8:55 PM 73.4 °F - 71.6 °F 94% 30.09 in 10.0 mi East 5.8 mph - N/A   Clear
9:15 PM 73.4 °F - 69.8 °F 88% 30.09 in 10.0 mi East 4.6 mph - N/A   Clear
9:35 PM 73.4 °F - 69.8 °F 88% 30.10 in 10.0 mi East 3.5 mph - N/A   Clear
9:55 PM 73.4 °F - 69.8 °F 88% 30.10 in 10.0 mi East 4.6 mph - N/A   Clear
10:15 PM 73.4 °F - 69.8 °F 88% 30.10 in 10.0 mi ESE 3.5 mph - N/A   Clear
10:35 PM 73.4 °F - 69.8 °F 88% 30.10 in 10.0 mi SE 5.8 mph - N/A   Clear
10:55 PM 73.4 °F - 69.8 °F 88% 30.11 in 10.0 mi SE 4.6 mph - N/A   Mostly Cloudy
11:15 PM 73.4 °F - 69.8 °F 88% 30.11 in 10.0 mi SE 6.9 mph - N/A   Mostly Cloudy
11:35 PM 73.4 °F - 69.8 °F 88% 30.11 in 10.0 mi SE 6.9 mph - N/A   Mostly Cloudy
11:55 PM 73.4 °F - 69.8 °F 88% 30.11 in 10.0 mi SE 5.8 mph - N/A   Scattered Clouds